Regional Weather Roundup
Issued by NWS State College, PA

Home | Current Version | Previous Version | Text Only | Print | Product List | Glossary On
Versions: 1 2 3 4 5 6 7 8 9 10 11 12 13 14 15 16 17 18 19 20 21 22 23 24 25 26 27 28 29 30 31 32 33 34 35 36 37 38 39 40 41 42 43 44 45 46 47 48 49 50
000
ASUS41 KCTP 201303
RWRCTP

REGIONAL WEATHER ROUNDUP
NATIONAL WEATHER SERVICE STATE COLLEGE PA
800 AM EST SAT DEC 20 2014

Note: "fair" indicates few or no clouds below 12,000 feet with no
significant weather and/or obstructions to visibility.

* = STATION THAT DOES NOT REPORT PRECIPITATION /E.G. RAIN...SNOW...ETC/
    THUNDER OR FOG.

PAZ002>004-007>009-013>016-020>023-029>032-201400-
WESTERN PENNSYLVANIA

CITY           SKY/WX    TMP DP  RH WIND       PRES   REMARKS
ERIE           CLOUDY    30  20  66 NW6       30.30R
MEADVILLE      CLOUDY    27  20  75 CALM      30.24F
FRANKLIN*      CLOUDY    25  18  74 CALM      30.25F
NEW CASTLE       N/A     26  21  81 CALM      30.29S
BEAVER COUNTY  CLOUDY    27  19  74 CALM      30.26F
BUTLER*        CLOUDY    25  18  74 CALM      30.28R
PITTSBURGH INT CLOUDY    26  19  74 NE6       30.26S
PITTSBURGH     CLOUDY    25  16  68 NE6       30.24F
INDIANA*       CLOUDY    25  19  80 CALM      30.29F
LATROBE        MOCLDY    23  19  86 CALM      30.28F
WASHINGTON CO* NOT AVBL
$$

PAZ004>006-010>012-017>019-024>028-033>037-041-042-045-046-049>053-201400-
CENTRAL PENNSYLVANIA

CITY           SKY/WX    TMP DP  RH WIND       PRES   REMARKS
BRADFORD       CLOUDY    20  17  88 NW7       30.19S WCI  11
DUBOIS         CLOUDY    23  19  85 CALM      30.22R
CLEARFIELD     CLOUDY    23  17  78 W7        30.25R WCI  15
JOHNSTOWN      MOCLDY    20  15  81 N6        30.18F WCI  12
ALTOONA        PTCLDY    21  17  84 NE3       30.24F
STATE COLLEGE  NOT AVBL
WILLIAMSPORT   CLOUDY    31  20  63 W5        30.26S
SELINSGROVE    CLOUDY    30  21  69 CALM      30.27R
FT INDIANTOWN  CLOUDY    29  20  69 W5        30.29R
CAPITAL CITY   CLOUDY    30  19  63 W8        30.31R
HARRISBURG     CLOUDY    30  19  63 NW7       30.31R
YORK           CLOUDY    28  20  71 NW6       30.29R
$$

PAZ038>040-043-044-047-048-054-055-060>062-067>071-201400-
EASTERN PENNSYLVANIA

CITY           SKY/WX    TMP DP  RH WIND       PRES   REMARKS
SCRANTON       CLOUDY    30  21  69 N5        30.23R
MOUNT POCONO   CLOUDY    24  19  81 N6        30.15S
ALLENTOWN      CLOUDY    31  20  63 N7        30.26R
QUAKERTOWN*    CLOUDY    30  21  69 N7        30.26R
READING        CLOUDY    32  19  58 N5        30.27R
LANCASTER      CLOUDY    30  19  63 NW5       30.29R
COATESVILLE    CLOUDY    32  23  69 N5        30.25R
POTTSTOWN      CLOUDY    31  20  63 N3        30.28R
BLUE BELL      CLOUDY    32  23  69 CALM      30.27R
DOYLESTOWN     CLOUDY    29  20  69 N3        30.26R
WILLOW GROVE   NOT AVBL
NORTH PHILA    CLOUDY    33  19  56 N5        30.30R
PHILADELPHIA   CLOUDY    33  21  61 NW8       30.30R
$$



USA.gov is the U.S. government's official web portal to all federal, state and local government web resources and services.